| time (UTC) | temp C | wind direction | speed KPH | gust KPH | rain 1hr cm | rain 24hr cm | rain mn cm | humidity % | barometer mb |
| 20260509072005 | 15 | 235 | 4.8 | 9.7 | 0.00 | 0.00 | 0.00 | 76 | 1016.5 |
| 20260509071505 | 15 | 241 | 4.8 | 9.7 | 0.00 | 0.00 | 0.00 | 76 | 1016.5 |
| 20260509070505 | 14 | 239 | 6.4 | 12.9 | 0.00 | 0.00 | 0.00 | 77 | 1016.4 |
| 20260509070005 | 14 | 227 | 6.4 | 12.9 | 0.00 | 0.00 | 0.00 | 78 | 1016.6 |
| 20260509065505 | 14 | 222 | 6.4 | 9.7 | 0.00 | 0.00 | 0.00 | 78 | 1016.4 |
| 20260509065005 | 13 | 55 | 3.2 | 8.0 | 0.00 | 0.00 | 0.00 | 79 | 1016.5 |
| 20260509064505 | 13 | 63 | 0.0 | 4.8 | 0.00 | 0.00 | 0.00 | 80 | 1016.4 |
| 20260509064005 | 13 | 67 | 1.6 | 4.8 | 0.00 | 0.00 | 0.00 | 81 | 1016.5 |
| 20260509063505 | 13 | 70 | 3.2 | 4.8 | 0.00 | 0.00 | 0.00 | 82 | 1016.4 |
| 20260509063006 | 12 | 65 | 3.2 | 4.8 | 0.00 | 0.00 | 0.00 | 83 | 1016.2 |
| 20260509062505 | 12 | 68 | 1.6 | 3.2 | 0.00 | 0.00 | 0.00 | 84 | 1016.5 |
| 20260509062005 | 12 | 69 | 1.6 | 3.2 | 0.00 | 0.00 | 0.00 | 85 | 1016.2 |
| 20260509061505 | 12 | 62 | 3.2 | 4.8 | 0.00 | 0.00 | 0.00 | 88 | 1016.5 |
| 20260509061005 | 12 | 45 | 3.2 | 6.4 | 0.00 | 0.00 | 0.00 | 89 | 1016.4 |
| 20260509060505 | 11 | 34 | 3.2 | 6.4 | 0.00 | 0.00 | 0.00 | 90 | 1016.4 |
| 20260509055505 | 11 | 32 | 3.2 | 6.4 | 0.00 | 0.00 | 0.00 | 92 | 1016.5 |
| 20260509055005 | 11 | 37 | 4.8 | 6.4 | 0.00 | 0.00 | 0.00 | 93 | 1016.4 |
| 20260509054005 | 10 | 51 | 3.2 | 6.4 | 0.00 | 0.00 | 0.00 | 94 | 1016.4 |
| 20260509053505 | 10 | 58 | 3.2 | 4.8 | 0.00 | 0.00 | 0.00 | 95 | 1016.3 |
| 20260509053005 | 10 | 69 | 3.2 | 4.8 | 0.00 | 0.00 | 0.00 | 95 | 1016.3 |
| 20260509052505 | 10 | 77 | 3.2 | 6.4 | 0.00 | 0.00 | 0.00 | 95 | 1016.2 |
| 20260509051504 | 10 | 71 | 1.6 | 4.8 | 0.00 | 0.00 | 0.00 | 95 | 1016.2 |
| 20260509051005 | 10 | 64 | 1.6 | 4.8 | 0.00 | 0.00 | 0.00 | 95 | 1016.2 |
| 20260509050505 | 10 | 68 | 3.2 | 6.4 | 0.00 | 0.00 | 0.00 | 95 | 1016.1 |
| 20260509045505 | 9 | 53 | 3.2 | 4.8 | 0.00 | 0.00 | 0.00 | 94 | 1016.2 |
| 20260509045005 | 9 | 55 | 3.2 | 4.8 | 0.00 | 0.00 | 0.00 | 93 | 1016.0 |
| 20260509044504 | 9 | 67 | 1.6 | 4.8 | 0.00 | 0.00 | 0.00 | 92 | 1015.9 |
| 20260509044005 | 9 | 83 | 1.6 | 3.2 | 0.00 | 0.00 | 0.00 | 92 | 1015.9 |
| 20260509043505 | 9 | 90 | 1.6 | 3.2 | 0.00 | 0.00 | 0.00 | 92 | 1015.8 |
| 20260509043005 | 9 | 111 | 0.0 | 3.2 | 0.00 | 0.00 | 0.00 | 92 | 1015.7 |
| 20260509042505 | 9 | 111 | 1.6 | 3.2 | 0.00 | 0.00 | 0.00 | 92 | 1015.7 |
| 20260509041505 | 9 | 96 | 0.0 | 3.2 | 0.00 | 0.00 | 0.00 | 93 | 1015.5 |
| 20260509041005 | 9 | 95 | 1.6 | 3.2 | 0.00 | 0.00 | 0.00 | 93 | 1015.5 |
| 20260509040505 | 10 | 96 | 3.2 | 6.4 | 0.00 | 0.00 | 0.00 | 93 | 1015.3 |
| 20260509040005 | 10 | 95 | 4.8 | 6.4 | 0.00 | 0.00 | 0.00 | 93 | 1015.3 |
| 20260509034506 | 10 | 85 | 1.6 | 6.4 | 0.00 | 0.00 | 0.00 | 93 | 1015.3 |
| 20260509034005 | 10 | 80 | 1.6 | 4.8 | 0.00 | 0.00 | 0.00 | 93 | 1015.5 |
| 20260509033505 | 10 | 75 | 1.6 | 4.8 | 0.00 | 0.00 | 0.00 | 94 | 1015.5 |
| 20260509033005 | 10 | 73 | 3.2 | 4.8 | 0.00 | 0.00 | 0.00 | 94 | 1015.5 |
| 20260509032505 | 10 | 72 | 3.2 | 6.4 | 0.00 | 0.00 | 0.00 | 94 | 1015.4 |
| 20260509031504 | 10 | 71 | 3.2 | 6.4 | 0.00 | 0.00 | 0.00 | 94 | 1015.4 |
| 20260509031005 | 10 | 71 | 3.2 | 6.4 | 0.00 | 0.00 | 0.00 | 94 | 1015.5 |
| 20260509030505 | 10 | 75 | 4.8 | 8.0 | 0.00 | 0.00 | 0.00 | 94 | 1015.5 |
| 20260509030005 | 10 | 76 | 4.8 | 8.0 | 0.00 | 0.00 | 0.00 | 94 | 1015.5 |
| 20260509025505 | 10 | 77 | 3.2 | 4.8 | 0.00 | 0.00 | 0.00 | 94 | 1015.6 |
| 20260509025005 | 10 | 82 | 3.2 | 4.8 | 0.00 | 0.00 | 0.00 | 94 | 1015.7 |
| 20260509024505 | 10 | 86 | 3.2 | 4.8 | 0.00 | 0.00 | 0.00 | 94 | 1015.5 |
| 20260509024004 | 10 | 90 | 3.2 | 4.8 | 0.00 | 0.00 | 0.00 | 94 | 1015.5 |
| 20260509023505 | 10 | 87 | 3.2 | 4.8 | 0.00 | 0.00 | 0.00 | 94 | 1015.5 |
| 20260509023005 | 10 | 81 | 1.6 | 3.2 | 0.00 | 0.00 | 0.00 | 94 | 1015.7 |
| 20260509022505 | 10 | 79 | 1.6 | 4.8 | 0.00 | 0.00 | 0.00 | 95 | 1015.6 |
| 20260509022005 | 10 | 72 | 3.2 | 6.4 | 0.00 | 0.00 | 0.00 | 95 | 1015.6 |
| 20260509021504 | 10 | 68 | 4.8 | 6.4 | 0.00 | 0.00 | 0.00 | 95 | 1015.6 |
| 20260509021004 | 10 | 65 | 4.8 | 8.0 | 0.00 | 0.00 | 0.00 | 95 | 1015.6 |
| 20260509020505 | 10 | 67 | 4.8 | 8.0 | 0.00 | 0.00 | 0.00 | 95 | 1015.6 |
| 20260509015004 | 10 | 76 | 3.2 | 6.4 | 0.00 | 0.00 | 0.00 | 93 | 1015.6 |
| 20260509014504 | 10 | 86 | 3.2 | 4.8 | 0.00 | 0.00 | 0.00 | 93 | 1015.5 |
| 20260509013505 | 10 | 101 | 1.6 | 3.2 | 0.00 | 0.00 | 0.00 | 93 | 1015.6 |
| 20260509013005 | 10 | 95 | 1.6 | 3.2 | 0.00 | 0.00 | 0.00 | 93 | 1015.6 |
| 20260509012005 | 10 | 90 | 0.0 | 3.2 | 0.00 | 0.00 | 0.00 | 94 | 1015.6 |
| 20260509011505 | 10 | 90 | 0.0 | 3.2 | 0.00 | 0.00 | 0.00 | 95 | 1015.5 |
| 20260509011005 | 10 | 95 | 1.6 | 6.4 | 0.00 | 0.00 | 0.00 | 95 | 1015.4 |
| 20260509010005 | 10 | 97 | 3.2 | 6.4 | 0.00 | 0.00 | 0.00 | 95 | 1015.6 |
| 20260509005505 | 10 | 92 | 3.2 | 6.4 | 0.00 | 0.00 | 0.00 | 95 | 1015.6 |
| 20260509004004 | 10 | 80 | 3.2 | 6.4 | 0.00 | 0.00 | 0.00 | 95 | 1015.7 |
| 20260509003505 | 10 | 73 | 3.2 | 8.0 | 0.00 | 0.00 | 0.00 | 95 | 1015.7 |
| 20260509002505 | 10 | 77 | 3.2 | 6.4 | 0.00 | 0.00 | 0.00 | 94 | 1015.8 |
| 20260509002004 | 10 | 81 | 1.6 | 4.8 | 0.00 | 0.00 | 0.00 | 94 | 1015.8 |
| 20260509000505 | 11 | 82 | 3.2 | 4.8 | 0.00 | 0.00 | 0.00 | 94 | 1016.0 |
| 20260508235505 | 11 | 71 | 1.6 | 3.2 | 0.00 | 0.00 | 0.00 | 94 | 1015.9 |
| 20260508234505 | 11 | 71 | 3.2 | 4.8 | 0.00 | 0.00 | 0.00 | 93 | 1016.2 |
| 20260508234005 | 11 | 70 | 1.6 | 3.2 | 0.00 | 0.00 | 0.00 | 93 | 1016.1 |
| 20260508233504 | 11 | 68 | 1.6 | 3.2 | 0.00 | 0.00 | 0.00 | 93 | 1016.2 |
| 20260508233005 | 11 | 68 | 1.6 | 3.2 | 0.00 | 0.00 | 0.00 | 93 | 1016.0 |
| 20260508231505 | 11 | 92 | 3.2 | 4.8 | 0.00 | 0.00 | 0.00 | 92 | 1016.1 |
| 20260508231005 | 11 | 112 | 1.6 | 4.8 | 0.00 | 0.00 | 0.00 | 92 | 1016.1 |
| 20260508230005 | 12 | 77 | 0.0 | 3.2 | 0.00 | 0.00 | 0.00 | 91 | 1016.2 |
| 20260508225504 | 12 | 83 | 0.0 | 3.2 | 0.00 | 0.00 | 0.00 | 91 | 1016.0 |
| 20260508225004 | 12 | 71 | 0.0 | 3.2 | 0.00 | 0.00 | 0.00 | 92 | 1016.0 |
| 20260508224508 | 12 | 58 | 1.6 | 4.8 | 0.00 | 0.00 | 0.00 | 88 | 1015.9 |
| 20260508223505 | 12 | 63 | 3.2 | 6.4 | 0.00 | 0.00 | 0.00 | 88 | 1015.7 |
| 20260508222505 | 12 | 60 | 3.2 | 6.4 | 0.00 | 0.00 | 0.00 | 87 | 1015.9 |
| 20260508222005 | 12 | 58 | 3.2 | 6.4 | 0.00 | 0.00 | 0.00 | 87 | 1016.0 |
| 20260508221508 | 13 | 60 | 3.2 | 4.8 | 0.00 | 0.00 | 0.00 | 87 | 1016.1 |
| 20260508221004 | 13 | 43 | 1.6 | 4.8 | 0.00 | 0.00 | 0.00 | 86 | 1016.0 |
| 20260508220507 | 13 | 244 | 1.6 | 3.2 | 0.00 | 0.00 | 0.00 | 86 | 1015.9 |
| 20260508220005 | 13 | 286 | 1.6 | 3.2 | 0.00 | 0.00 | 0.00 | 86 | 1016.0 |
| 20260508215504 | 13 | 347 | 0.0 | 3.2 | 0.00 | 0.00 | 0.00 | 86 | 1015.7 |
| 20260508215005 | 13 | 359 | 1.6 | 4.8 | 0.00 | 0.00 | 0.00 | 86 | 1015.8 |
| 20260508214505 | 13 | 354 | 3.2 | 6.4 | 0.00 | 0.00 | 0.00 | 86 | 1015.6 |
| 20260508214005 | 13 | 30 | 3.2 | 6.4 | 0.00 | 0.00 | 0.00 | 86 | 1015.6 |
| 20260508213504 | 13 | 44 | 3.2 | 4.8 | 0.00 | 0.00 | 0.00 | 86 | 1015.3 |
| 20260508213004 | 13 | 54 | 3.2 | 4.8 | 0.00 | 0.00 | 0.00 | 86 | 1015.4 |
| 20260508212505 | 14 | 57 | 3.2 | 4.8 | 0.00 | 0.00 | 0.00 | 86 | 1015.3 |
| 20260508212005 | 14 | 53 | 3.2 | 6.4 | 0.00 | 0.00 | 0.00 | 86 | 1015.2 |
| 20260508211505 | 14 | 57 | 4.8 | 6.4 | 0.00 | 0.00 | 0.00 | 86 | 1015.1 |
| 20260508211004 | 14 | 57 | 4.8 | 6.4 | 0.00 | 0.00 | 0.00 | 86 | 1015.1 |
| 20260508210504 | 14 | 54 | 3.2 | 6.4 | 0.00 | 0.00 | 0.00 | 86 | 1015.2 |
| 20260508210005 | 14 | 35 | 3.2 | 6.4 | 0.00 | 0.00 | 0.00 | 86 | 1015.4 |
| 20260508205008 | 14 | 43 | 1.6 | 3.2 | 0.00 | 0.00 | 0.00 | 85 | 1015.7 |
| 20260508204505 | 15 | 50 | 1.6 | 4.8 | 0.00 | 0.00 | 0.00 | 85 | 1015.6 |
| 20260508203504 | 15 | 38 | 3.2 | 4.8 | 0.00 | 0.00 | 0.00 | 84 | 1015.4 |
| 20260508203004 | 15 | 45 | 3.2 | 6.4 | 0.00 | 0.00 | 0.00 | 84 | 1015.4 |
| 20260508202505 | 15 | 40 | 3.2 | 6.4 | 0.00 | 0.00 | 0.00 | 83 | 1015.6 |
| 20260508201505 | 15 | 32 | 3.2 | 8.0 | 0.00 | 0.00 | 0.00 | 83 | 1015.2 |
| 20260508201004 | 15 | 34 | 3.2 | 8.0 | 0.00 | 0.00 | 0.00 | 83 | 1015.4 |
| 20260508200504 | 15 | 27 | 3.2 | 8.0 | 0.00 | 0.00 | 0.00 | 83 | 1015.3 |
| 20260508200004 | 15 | 31 | 3.2 | 9.7 | 0.00 | 0.00 | 0.00 | 81 | 1015.3 |
| 20260508195506 | 15 | 45 | 4.8 | 9.7 | 0.00 | 0.00 | 0.00 | 80 | 1015.1 |
| 20260508195005 | 15 | 56 | 4.8 | 8.0 | 0.00 | 0.00 | 0.00 | 80 | 1015.3 |
| 20260508194507 | 15 | 60 | 4.8 | 8.0 | 0.00 | 0.00 | 0.00 | 79 | 1015.1 |
| 20260508194005 | 16 | 64 | 4.8 | 8.0 | 0.00 | 0.00 | 0.00 | 78 | 1015.0 |
| 20260508193005 | 16 | 70 | 4.8 | 9.7 | 0.00 | 0.00 | 0.00 | 76 | 1014.7 |
| 20260508192504 | 16 | 69 | 4.8 | 8.0 | 0.00 | 0.00 | 0.00 | 74 | 1014.8 |
| 20260508192004 | 17 | 69 | 6.4 | 12.9 | 0.00 | 0.00 | 0.00 | 70 | 1014.9 |
| 20260508191504 | 17 | 61 | 6.4 | 12.9 | 0.00 | 0.00 | 0.00 | 68 | 1014.7 |
| 20260508191005 | 17 | 60 | 4.8 | 12.9 | 0.00 | 0.00 | 0.00 | 68 | 1014.8 |
| 20260508190505 | 17 | 68 | 3.2 | 9.7 | 0.00 | 0.00 | 0.00 | 69 | 1014.6 |
| 20260508190004 | 17 | 80 | 3.2 | 6.4 | 0.00 | 0.00 | 0.00 | 69 | 1014.5 |
| 20260508185504 | 17 | 80 | 3.2 | 9.7 | 0.00 | 0.00 | 0.00 | 65 | 1014.5 |
| 20260508185005 | 17 | 83 | 4.8 | 9.7 | 0.00 | 0.00 | 0.00 | 65 | 1014.4 |
| 20260508184505 | 17 | 85 | 6.4 | 11.3 | 0.00 | 0.00 | 0.00 | 65 | 1014.3 |
| 20260508184005 | 17 | 88 | 4.8 | 11.3 | 0.00 | 0.00 | 0.00 | 64 | 1014.4 |
| 20260508183504 | 17 | 86 | 4.8 | 11.3 | 0.00 | 0.00 | 0.00 | 64 | 1014.4 |
| 20260508183005 | 17 | 83 | 4.8 | 11.3 | 0.00 | 0.00 | 0.00 | 64 | 1014.2 |
| 20260508182505 | 17 | 86 | 6.4 | 12.9 | 0.00 | 0.00 | 0.00 | 64 | 1014.0 |
| 20260508182004 | 18 | 83 | 6.4 | 12.9 | 0.00 | 0.00 | 0.00 | 64 | 1014.2 |
| 20260508181504 | 18 | 80 | 6.4 | 11.3 | 0.00 | 0.00 | 0.00 | 63 | 1014.0 |
| 20260508181004 | 18 | 79 | 4.8 | 12.9 | 0.00 | 0.00 | 0.00 | 63 | 1013.9 |
| 20260508180504 | 18 | 80 | 4.8 | 12.9 | 0.00 | 0.00 | 0.00 | 62 | 1013.7 |
| 20260508180005 | 18 | 75 | 6.4 | 12.9 | 0.00 | 0.00 | 0.00 | 61 | 1013.6 |
| 20260508175504 | 18 | 74 | 8.0 | 12.9 | 0.00 | 0.00 | 0.00 | 61 | 1013.5 |
| 20260508175004 | 18 | 73 | 8.0 | 12.9 | 0.00 | 0.00 | 0.00 | 60 | 1013.5 |
| 20260508174504 | 18 | 71 | 9.7 | 12.9 | 0.00 | 0.00 | 0.00 | 60 | 1013.4 |
| 20260508174004 | 18 | 64 | 8.0 | 14.5 | 0.00 | 0.00 | 0.00 | 58 | 1013.4 |
| 20260508173504 | 18 | 58 | 6.4 | 14.5 | 0.00 | 0.00 | 0.00 | 57 | 1013.4 |
| 20260508173005 | 18 | 61 | 6.4 | 16.1 | 0.00 | 0.00 | 0.00 | 57 | 1013.1 |
| 20260508172505 | 19 | 58 | 8.0 | 16.1 | 0.00 | 0.00 | 0.00 | 57 | 1013.1 |
| 20260508172004 | 19 | 56 | 8.0 | 19.3 | 0.00 | 0.00 | 0.00 | 56 | 1013.1 |
| 20260508171504 | 19 | 53 | 9.7 | 20.9 | 0.00 | 0.00 | 0.00 | 55 | 1013.0 |
| 20260508170505 | 19 | 79 | 6.4 | 19.3 | 0.00 | 0.00 | 0.00 | 52 | 1012.9 |
| 20260508170008 | 19 | 72 | 6.4 | 14.5 | 0.00 | 0.00 | 0.00 | 50 | 1012.8 |
| 20260508165504 | 20 | 67 | 6.4 | 14.5 | 0.00 | 0.00 | 0.00 | 48 | 1012.9 |
| 20260508165005 | 20 | 86 | 6.4 | 12.9 | 0.00 | 0.00 | 0.00 | 48 | 1012.9 |
| 20260508164504 | 20 | 94 | 6.4 | 12.9 | 0.00 | 0.00 | 0.00 | 48 | 1012.9 |
| 20260508164005 | 20 | 75 | 4.8 | 11.3 | 0.00 | 0.00 | 0.00 | 47 | 1012.8 |
| 20260508163504 | 20 | 73 | 4.8 | 9.7 | 0.00 | 0.00 | 0.00 | 47 | 1012.7 |
| 20260508162504 | 20 | 85 | 6.4 | 12.9 | 0.00 | 0.00 | 0.00 | 45 | 1012.7 |
| 20260508162004 | 20 | 76 | 4.8 | 12.9 | 0.00 | 0.00 | 0.00 | 45 | 1012.6 |
| 20260508161005 | 21 | 17 | 4.8 | 12.9 | 0.00 | 0.00 | 0.00 | 45 | 1012.6 |
| 20260508160004 | 21 | 23 | 4.8 | 12.9 | 0.00 | 0.00 | 0.00 | 45 | 1012.7 |
| 20260508155004 | 21 | 36 | 4.8 | 12.9 | 0.00 | 0.00 | 0.00 | 41 | 1012.8 |
| 20260508154005 | 21 | 48 | 6.4 | 14.5 | 0.00 | 0.00 | 0.00 | 44 | 1012.7 |
| 20260508153005 | 21 | 21 | 6.4 | 12.9 | 0.00 | 0.00 | 0.00 | 47 | 1012.8 |
| 20260508152506 | 20 | 8 | 4.8 | 12.9 | 0.00 | 0.00 | 0.00 | 48 | 1012.9 |
| 20260508152004 | 20 | 357 | 6.4 | 12.9 | 0.00 | 0.00 | 0.00 | 46 | 1012.7 |
| 20260508151004 | 20 | 6 | 6.4 | 12.9 | 0.00 | 0.00 | 0.00 | 47 | 1012.8 |
| 20260508150504 | 20 | 23 | 6.4 | 11.3 | 0.00 | 0.00 | 0.00 | 48 | 1012.9 |
| 20260508150005 | 19 | 38 | 6.4 | 11.3 | 0.00 | 0.00 | 0.00 | 50 | 1012.7 |
| 20260508145505 | 19 | 46 | 4.8 | 9.7 | 0.00 | 0.00 | 0.00 | 51 | 1013.0 |
| 20260508144505 | 20 | 68 | 9.7 | 12.9 | 0.00 | 0.00 | 0.00 | 48 | 1013.1 |
| 20260508144004 | 20 | 75 | 9.7 | 12.9 | 0.00 | 0.00 | 0.00 | 49 | 1013.2 |
| 20260508143007 | 20 | 76 | 6.4 | 14.5 | 0.00 | 0.00 | 0.00 | 49 | 1013.2 |
| 20260508142504 | 20 | 80 | 8.0 | 14.5 | 0.00 | 0.00 | 0.00 | 49 | 1013.3 |
| 20260508142007 | 20 | 73 | 6.4 | 17.7 | 0.00 | 0.00 | 0.00 | 50 | 1013.2 |
| 20260508140505 | 20 | 64 | 8.0 | 14.5 | 0.00 | 0.00 | 0.00 | 51 | 1013.3 |
| 20260508140004 | 20 | 63 | 8.0 | 19.3 | 0.00 | 0.00 | 0.00 | 51 | 1013.2 |
| 20260508135505 | 20 | 66 | 9.7 | 19.3 | 0.00 | 0.00 | 0.00 | 51 | 1013.5 |
| 20260508135005 | 19 | 66 | 8.0 | 14.5 | 0.00 | 0.00 | 0.00 | 53 | 1013.4 |
| 20260508134504 | 19 | 66 | 6.4 | 14.5 | 0.00 | 0.00 | 0.00 | 52 | 1013.4 |
| 20260508134004 | 19 | 70 | 9.7 | 25.7 | 0.00 | 0.00 | 0.00 | 55 | 1013.3 |
| 20260508133005 | 19 | 53 | 9.7 | 17.7 | 0.00 | 0.00 | 0.00 | 55 | 1013.6 |
| 20260508131004 | 18 | 31 | 9.7 | 14.5 | 0.00 | 0.00 | 0.00 | 59 | 1013.8 |
| 20260508130505 | 18 | 35 | 6.4 | 12.9 | 0.00 | 0.00 | 0.00 | 60 | 1013.8 |
| 20260508130004 | 18 | 39 | 6.4 | 16.1 | 0.00 | 0.00 | 0.00 | 63 | 1014.0 |
| 20260508125507 | 18 | 47 | 8.0 | 16.1 | 0.00 | 0.00 | 0.00 | 62 | 1014.1 |
| 20260508125004 | 18 | 50 | 8.0 | 12.9 | 0.00 | 0.00 | 0.00 | 64 | 1014.1 |
| 20260508124505 | 18 | 50 | 9.7 | 14.5 | 0.00 | 0.00 | 0.00 | 64 | 1014.0 |
| 20260508123504 | 18 | 70 | 9.7 | 17.7 | 0.00 | 0.00 | 0.00 | 63 | 1014.2 |
| 20260508122504 | 18 | 62 | 9.7 | 17.7 | 0.00 | 0.00 | 0.00 | 65 | 1014.2 |
| 20260508122004 | 18 | 62 | 9.7 | 19.3 | 0.00 | 0.00 | 0.00 | 64 | 1014.4 |
| 20260508121004 | 17 | 36 | 8.0 | 16.1 | 0.00 | 0.00 | 0.00 | 65 | 1014.5 |
| 20260508120504 | 17 | 29 | 8.0 | 12.9 | 0.00 | 0.00 | 0.00 | 66 | 1014.5 |
| 20260508120006 | 17 | 29 | 6.4 | 12.9 | 0.00 | 0.00 | 0.00 | 66 | 1014.5 |
| 20260508115504 | 17 | 40 | 8.0 | 16.1 | 0.00 | 0.00 | 0.00 | 69 | 1014.6 |
| 20260508115005 | 17 | 48 | 9.7 | 17.7 | 0.00 | 0.00 | 0.00 | 67 | 1014.5 |
| 20260508114505 | 17 | 62 | 9.7 | 17.7 | 0.00 | 0.00 | 0.00 | 67 | 1014.6 |
| 20260508114005 | 17 | 77 | 6.4 | 14.5 | 0.00 | 0.00 | 0.00 | 68 | 1014.5 |
| 20260508113005 | 17 | 73 | 8.0 | 17.7 | 0.00 | 0.00 | 0.00 | 69 | 1014.9 |
| 20260508112505 | 16 | 71 | 11.3 | 20.9 | 0.00 | 0.00 | 0.00 | 69 | 1014.7 |
| 20260508112004 | 16 | 68 | 11.3 | 20.9 | 0.00 | 0.00 | 0.00 | 69 | 1014.9 |
| 20260508111504 | 16 | 62 | 9.7 | 14.5 | 0.00 | 0.00 | 0.00 | 69 | 1014.9 |
| 20260508111005 | 16 | 62 | 8.0 | 14.5 | 0.00 | 0.00 | 0.00 | 70 | 1014.9 |
| 20260508110005 | 16 | 65 | 8.0 | 16.1 | 0.00 | 0.00 | 0.00 | 71 | 1015.1 |
| 20260508105504 | 16 | 68 | 9.7 | 17.7 | 0.00 | 0.00 | 0.00 | 71 | 1015.0 |
| 20260508105005 | 16 | 40 | 8.0 | 17.7 | 0.00 | 0.00 | 0.00 | 70 | 1015.1 |
| 20260508104504 | 16 | 236 | 8.0 | 14.5 | 0.00 | 0.00 | 0.00 | 71 | 1015.1 |
| 20260508104004 | 16 | 261 | 4.8 | 16.1 | 0.00 | 0.00 | 0.00 | 72 | 1015.3 |
| 20260508103504 | 15 | 256 | 4.8 | 16.1 | 0.00 | 0.00 | 0.00 | 72 | 1015.3 |
| 20260508103005 | 15 | 256 | 6.4 | 16.1 | 0.00 | 0.00 | 0.00 | 73 | 1015.3 |
| 20260508102504 | 15 | 259 | 6.4 | 12.9 | 0.00 | 0.00 | 0.00 | 72 | 1015.2 |
| 20260508102004 | 15 | 256 | 8.0 | 14.5 | 0.00 | 0.00 | 0.00 | 72 | 1015.3 |
| 20260508101505 | 15 | 262 | 8.0 | 14.5 | 0.00 | 0.00 | 0.00 | 73 | 1015.2 |
| 20260508101007 | 15 | 240 | 6.4 | 12.9 | 0.00 | 0.00 | 0.00 | 74 | 1015.2 |
| 20260508095505 | 15 | 214 | 4.8 | 12.9 | 0.00 | 0.00 | 0.00 | 73 | 1015.3 |
| 20260508094505 | 15 | 215 | 8.0 | 11.3 | 0.00 | 0.00 | 0.00 | 74 | 1015.2 |
| 20260508094004 | 15 | 224 | 6.4 | 12.9 | 0.00 | 0.00 | 0.00 | 75 | 1015.3 |
| 20260508093504 | 14 | 242 | 6.4 | 12.9 | 0.00 | 0.00 | 0.00 | 75 | 1015.4 |
| 20260508093005 | 14 | 251 | 6.4 | 12.9 | 0.00 | 0.00 | 0.00 | 75 | 1015.4 |
| 20260508092504 | 13 | 253 | 6.4 | 12.9 | 0.00 | 0.00 | 0.00 | 76 | 1015.2 |
| 20260508092004 | 13 | 254 | 8.0 | 12.9 | 0.00 | 0.00 | 0.00 | 76 | 1015.4 |
| 20260508091505 | 13 | 256 | 8.0 | 12.9 | 0.00 | 0.00 | 0.00 | 77 | 1015.5 |
| 20260508090504 | 13 | 248 | 8.0 | 14.5 | 0.00 | 0.00 | 0.00 | 77 | 1015.5 |
| 20260508090005 | 13 | 237 | 6.4 | 14.5 | 0.00 | 0.00 | 0.00 | 78 | 1015.3 |
| 20260508085504 | 13 | 224 | 6.4 | 12.9 | 0.00 | 0.00 | 0.00 | 77 | 1015.4 |
| 20260508085004 | 13 | 199 | 6.4 | 12.9 | 0.00 | 0.00 | 0.00 | 77 | 1015.2 |
| 20260508084504 | 13 | 175 | 4.8 | 11.3 | 0.00 | 0.00 | 0.00 | 77 | 1015.3 |
| 20260508084005 | 13 | 174 | 3.2 | 6.4 | 0.00 | 0.00 | 0.00 | 77 | 1015.4 |
| 20260508083505 | 12 | 181 | 3.2 | 6.4 | 0.00 | 0.00 | 0.00 | 77 | 1015.3 |
| 20260508083004 | 12 | 190 | 6.4 | 12.9 | 0.00 | 0.00 | 0.00 | 77 | 1015.3 |
| 20260508082504 | 13 | 203 | 6.4 | 12.9 | 0.00 | 0.00 | 0.00 | 78 | 1015.3 |
| 20260508082004 | 12 | 213 | 4.8 | 8.0 | 0.00 | 0.00 | 0.00 | 77 | 1015.3 |
| 20260508081504 | 12 | 225 | 4.8 | 8.0 | 0.00 | 0.00 | 0.00 | 78 | 1015.2 |
| 20260508081004 | 12 | 227 | 4.8 | 11.3 | 0.00 | 0.00 | 0.00 | 79 | 1015.3 |
| 20260508080504 | 12 | 229 | 6.4 | 12.9 | 0.00 | 0.00 | 0.00 | 80 | 1015.2 |
| 20260508080005 | 12 | 231 | 6.4 | 12.9 | 0.00 | 0.00 | 0.00 | 83 | 1015.1 |
| 20260508075505 | 12 | 231 | 6.4 | 12.9 | 0.00 | 0.00 | 0.00 | 84 | 1015.0 |
| 20260508075004 | 12 | 237 | 8.0 | 12.9 | 0.00 | 0.00 | 0.00 | 85 | 1015.0 |
| 20260508074505 | 12 | 244 | 6.4 | 12.9 | 0.00 | 0.00 | 0.00 | 85 | 1015.1 |
| 20260508073504 | 11 | 251 | 3.2 | 6.4 | 0.00 | 0.00 | 0.00 | 86 | 1015.1 |
| 20260508072505 | 11 | 257 | 4.8 | 8.0 | 0.00 | 0.00 | 0.00 | 87 | 1015.1 |